Home > Time Zones > World Clock > Weather > Japan > Kobe > Past weeks

Flag for Japan Weather past 2 weeks in Kobe, Japan

Now
72 °F

Mostly cloudy.


Feels Like: 76 °F
Forecast: 65 / 80 °F
Wind: 12 mph from East

Location: Osaka International Airport

Current Time: May 29, 2015 at 5:45:10 AM

Latest Report: May 29, 2015 at 5:00 AM


Visibility: N/A

Pressure: 29.80 "Hg

Humidity: 61%

Dew point: 57 °F

Location of KobeLocation

Historic Weather in Kobe — Graph

°F

Kobe temperature yesterday

Maximum temperature yesterday: 86 °F (at 12:00 PM)
Minimum temperature yesterday: 64 °F (at 5:00 AM)
Average temperature yesterday: 79 °F

Past Weeks' High & Low Weather Summary

 TemperatureHumidityPressure
High90 °F (May 27, 4:00 PM)100% (May 16, 5:00 AM)30.01 "Hg (May 16, 5:00 AM)
Low54 °F (May 21, 5:00 AM)19% (May 27, 7:00 PM)29.53 "Hg (May 20, 2:00 PM)
Average74 °F54%29.80 "Hg
* Reported May 13 8:00 PM — May 28 8:00 PM, Kobe, Weather by CustomWeather, © 2015

Note: Actual official high and low records may vary slightly from our data, if they occured in-between our weather recording intervals... More about our weather records

Advertising

Kobe weather history for previous 24 hours

 ConditionsComfort  
Time TempWeatherWind HumidityBarometerVisibility
8:00 PM
Thu, May 28
77 °FPassing clouds.12 mph54%29.86 "HgN/A
7:00 PM79 °FMore clouds than sun.5 mph48%29.83 "HgN/A
6:00 PM79 °FMore clouds than sun.3 mph48%29.83 "HgN/A
5:00 PM79 °FOvercast.7 mph54%29.83 "HgN/A
4:00 PM82 °FPartly sunny.8 mph37%29.80 "HgN/A
3:00 PM86 °FPartly sunny.7 mph27%29.80 "HgN/A
2:00 PM84 °FOvercast.7 mph35%29.80 "HgN/A
1:00 PM86 °FOvercast.8 mph38%29.83 "HgN/A
12:00 PM86 °FPassing clouds.12 mph43%29.83 "HgN/A
11:00 AM82 °FSunny.15 mph42%29.83 "Hg10 mi
10:00 AM81 °FPassing clouds.13 mph45%29.86 "HgN/A
9:00 AM79 °FPassing clouds.12 mph42%29.86 "HgN/A
8:00 AM77 °FPassing clouds.8 mph39%29.86 "HgN/A
7:00 AM72 °FSunny.5 mph50%29.86 "Hg10 mi
6:00 AM66 °FSunny.6 mph56%29.86 "Hg10 mi
5:00 AM64 °FPassing clouds.3 mph60%29.83 "HgN/A
Weather by CustomWeather, © 2015

See weather overviewHow to use our weather pages